N1MRE Weather Reports


time (UTC)temp
C
wind
direction
speed
KPH
gust
KPH
rain 1hr
cm
rain 24hr
cm
rain mn
cm
humidity
%
barometer
mb
20260504214548 19 297 12.9 27.4 0.00 0.00 0.00 37 1004.4
20260504213121 20 254 8.0 27.4 0.00 0.00 0.00 40 1004.5
20260504211549 19 126 8.0 32.2 0.00 0.00 0.00 39 1004.4
20260504210055 19 271 11.3 25.7 0.00 0.00 0.00 40 1004.5
20260504204557 19 251 14.5 37.0 0.00 0.00 0.00 39 1004.4
20260504203117 19 267 1.6 19.3 0.00 0.00 0.00 43 1004.4
20260504201556 19 268 8.0 19.3 0.00 0.00 0.00 44 1004.6
20260504200053 20 278 6.4 20.9 0.00 0.00 0.00 40 1004.7
20260504194604 19 0 3.2 24.1 0.00 0.00 0.00 41 1004.9
20260504193105 18 157 9.7 24.1 0.00 0.00 0.00 46 1005.2
20260504191550 17 289 4.8 17.7 0.00 0.00 0.00 47 1005.3
20260504190105 16 242 11.3 25.7 0.00 0.00 0.00 51 1005.5
20260504184559 16 282 4.8 16.1 0.00 0.00 0.00 53 1005.6
20260504183051 15 237 4.8 14.5 0.00 0.00 0.00 53 1005.7
20260504181549 15 25 1.6 12.9 0.00 0.00 0.00 53 1005.8
20260504180051 15 13 4.8 12.9 0.00 0.00 0.00 54 1006.1
20260504174601 15 331 4.8 22.5 0.00 0.00 0.00 54 1006.0
20260504173056 15 322 6.4 30.6 0.00 0.00 0.00 51 1005.9
20260504171551 15 309 11.3 33.8 0.00 0.00 0.00 53 1006.0
20260504140106 13 303 6.4 22.5 0.00 0.00 0.00 61 1006.5
20260504110118 3 146 3.2 9.7 0.00 0.13 0.00 85 1007.8
20260504100103 3 0 1.6 6.4 0.00 0.18 0.00 81 1007.6
20260504090121 3 0 1.6 8.0 0.00 0.18 0.00 82 1007.8
20260504081554 2 192 3.2 6.4 0.00 0.18 0.00 85 1007.8
20260504044559 1 0 0.0 0.0 0.00 0.18 0.00 83 1007.5
20260504043051 2 0 0.0 0.0 0.00 0.18 0.00 83 1007.5
20260504041553 2 0 0.0 0.0 0.00 0.18 0.00 82 1007.3
20260504040049 2 155 0.0 9.7 0.00 0.18 0.00 82 1007.4
20260504034554 3 148 3.2 8.0 0.00 0.18 0.18 81 1007.3
20260504033054 3 165 1.6 9.7 0.00 0.18 0.18 78 1007.3
20260504031551 3 200 0.0 4.8 0.00 0.18 0.18 78 1007.3
20260504030052 3 0 0.0 6.4 0.00 0.18 0.18 71 1007.2
20260504024557 4 193 0.0 11.3 0.00 0.20 0.18 74 1007.3
20260504023051 3 0 0.0 8.0 0.00 0.20 0.18 75 1007.3
20260504021553 3 161 3.2 8.0 0.00 0.20 0.18 78 1007.3
20260504020051 3 154 6.4 12.9 0.00 0.20 0.18 81 1007.3
20260504014552 3 185 4.8 14.5 0.00 0.20 0.18 81 1007.2
20260504013051 3 158 3.2 12.9 0.00 0.20 0.18 79 1007.2
20260504011550 3 0 0.0 4.8 0.00 0.20 0.18 74 1007.0
20260504010058 4 0 0.0 3.2 0.00 0.20 0.18 74 1006.9
20260504004550 5 0 0.0 4.8 0.00 0.23 0.18 72 1006.8
20260504003052 5 254 3.2 9.7 0.00 0.23 0.18 70 1006.6
20260504001605 6 0 0.0 4.8 0.00 0.23 0.18 66 1006.6
20260504000049 6 336 1.6 11.3 0.00 0.23 0.18 61 1006.4
20260503234550 7 327 1.6 12.9 0.00 0.23 0.18 57 1006.2
20260503233050 7 316 3.2 14.5 0.00 0.23 0.18 54 1006.1
20260503231550 8 17 4.8 22.5 0.00 0.23 0.18 53 1006.1
20260503230051 8 306 9.7 25.7 0.00 0.23 0.18 50 1005.8
20260503224550 8 271 9.7 27.4 0.00 0.23 0.18 49 1005.6
20260503223050 9 291 8.0 32.2 0.00 0.23 0.18 49 1005.6
20260503221551 9 340 11.3 25.7 0.00 0.23 0.18 49 1005.3
20260503220108 10 0 6.4 32.2 0.00 0.23 0.18 48 1005.2